Location: Newark
(3.1475°N, 101.6933°E)
Time: 14:09:37
(UTC+00:00)

Hubble Space Telescope - Pass Details

Date: 19 October 2019
Orbit: 536 x 540 km, 28.5° (Epoch: 13 November)

Event Time Altitude Azimuth Distance (km) Brightness Sun altitude
Rises 11:54:12 0° 282° (WNW) 2,673 5.7 -14.3°
Reaches altitude 10° 11:56:41 10° 271° (W) 1,784 4.8 -14.9°
Maximum altitude 12:00:16 29° 210° (SSW) 1,007 2.6 -15.8°
Drops below altitude 10° 12:03:52 10° 149° (SSE) 1,786 3.2 -16.7°
Enters shadow 12:04:22 - 146° (SSE) 1,953 3.4 -16.8°
